Flag for India Weather past 2 weeks in Dharamshala, Himachal Pradesh, India

Now
81 °F

Fog.


Feels Like: 85 °F
Forecast: 53 / 78 °F
Wind: 5 mph from East

Location: Amritsar Airport

Current Time: Sep 15, 2014 at 10:03:34 AM

Latest Report: Sep 15, 2014 at 9:00 AM


Visibility: 3 mi

Pressure: 29.77 "Hg

Humidity: 79%

Dew point: 73 °F

Location of DharamshalaLocation

Historic Weather in Dharamshala — Graph

°F

Dharamshala temperature yesterday

Maximum temperature yesterday: 88 °F (at 11:00 AM)
Minimum temperature yesterday: 77 °F (at 5:00 AM)
Average temperature yesterday: 80 °F

Past Weeks' High & Low Weather Summary

 TemperatureHumidityPressure
High95 °F (Aug 31, 1:00 PM)100% (Sep 1, 4:00 AM)29.80 "Hg (Sep 1, 4:00 AM)
Low73 °F (Sep 3, 6:30 PM)47% (Aug 31, 1:00 PM)29.42 "Hg (Sep 5, 8:00 PM)
Average81 °F89%29.67 "Hg
* Reported Aug 31 7:30 AM — Sep 15 8:00 AM, Dharamshala, Weather by CustomWeather, © 2014

Note: Actual official high and low records may vary slightly from our data, if they occured in-between our weather recording intervals... More about our weather records

Advertising

Dharamshala weather history for previous 24 hours

 ConditionsComfort  
Time TempWeatherWind HumidityBarometerVisibility
8:00 AM
Sep 15
77 °FFog.5 mph94%29.74 "Hg2 mi
7:30 AM77 °FFog.5 mph94%29.74 "Hg2 mi
6:30 AM75 °FFog.No wind100%29.74 "Hg2 mi
5:30 AM75 °FFog.No wind100%29.74 "Hg1 mi
5:00 AM75 °FFog.No wind100%29.74 "Hg1 mi
4:30 AM75 °FFog.No wind100%29.74 "Hg1 mi
4:00 AM75 °FFog.No wind100%29.74 "Hg1 mi
3:30 AM75 °FFog.No wind100%29.74 "Hg1 mi
3:00 AM75 °FFog.No wind100%29.74 "Hg1 mi
2:30 AM75 °FFog.No wind100%29.74 "Hg1 mi
2:00 AM75 °FFog.No wind100%29.74 "Hg1 mi
1:30 AM75 °FFog.No wind100%29.74 "Hg1 mi
1:00 AM75 °FFog.No wind100%29.74 "Hg1 mi
12:30 AM77 °FFog.No wind100%29.74 "Hg2 mi
12:00 AM77 °FFog.No wind100%29.71 "Hg2 mi
11:30 PM
Sep 14
77 °FFog.No wind100%29.71 "Hg2 mi
11:00 PM77 °FFog.No wind100%29.71 "Hg2 mi
10:30 PM77 °FFog.No wind100%29.71 "Hg2 mi
10:00 PM77 °FFog.No wind100%29.71 "Hg2 mi
9:30 PM77 °FFog.No wind100%29.71 "Hg2 mi
9:00 PM79 °FFog.No wind100%29.71 "Hg2 mi
8:30 PM79 °FFog.No wind94%29.71 "Hg2 mi
8:00 PM79 °FFog.No wind94%29.68 "Hg2 mi
7:30 PM79 °FFog.No wind94%29.68 "Hg2 mi
7:00 PM81 °FFog.No wind89%29.68 "Hg3 mi
6:30 PM81 °FFog.No wind89%29.68 "Hg3 mi
3:30 PM79 °FThunderstorms. More clouds than sun.5 mph100%29.71 "Hg2 mi
2:30 PM77 °FThunderstorms. More clouds than sun.9 mph100%29.71 "Hg1 mi
2:00 PM77 °FThunderstorms. More clouds than sun.6 mph100%29.80 "Hg1 mi
12:00 PM88 °FThunderstorms. More clouds than sun.8 mph66%29.77 "Hg2 mi
11:30 AM88 °FBroken clouds.7 mph66%29.77 "Hg2 mi
11:00 AM88 °FBroken clouds.No wind66%29.77 "Hg2 mi
10:30 AM86 °FBroken clouds.No wind70%29.74 "Hg2 mi
10:00 AM86 °FScattered clouds.2 mph70%29.74 "Hg2 mi
Weather by CustomWeather, © 2014

See weather overviewHow to use our weather pages